Japanese version Home page |
Updated on September 13, 2009 |
Profile
|
Orbital ElementsEpoch 2003 Aug. 29.0 TT = JDT 2452880.5 T 2003 Sept. 16.84059 TT MPC q 1.8808134 (2000.0) P Q n 0.16156476 Peri. 9.14066 +0.60964186 -0.77308038 a 3.3386556 Node 43.55521 +0.71025858 +0.43463338 e 0.4366554 Incl. 14.72703 +0.35195105 +0.46199627 P 6.10
|
Finding Charts
|
Magnitudes Graphm1 = 15.7 + 5 log d + 10.0 log r
|
The orbital elements are published on M.P.E.C. 2009-Q68.
|